Location: Isle-of-Palms
(32.8045°N, 79.7399°W)
Time: 11:38:56
(UTC+00:00)

X-37B - Visible Passes

Search period start: 09 August 2022 00:00
Search period end: 19 August 2022 00:00
Orbit: 328 x 343 km, 45.0° (Epoch: 27 July)

Date Brightness Start Highest point End Pass type
(mag) Time Alt. Az. Time Alt. Az. Time Alt. Az.
09 Aug 3.6 08:32:27 10° N 08:32:27 10° N 08:32:39 10° N visible
12 Aug 3.5 09:34:14 10° N 09:35:10 11° NNE 09:36:05 10° NNE visible
13 Aug 3.1 09:53:46 10° NNW 09:55:58 19° NNE 09:58:09 10° ENE visible
14 Aug 3.6 08:39:42 10° N 08:40:35 11° NNE 08:41:29 10° NNE visible
14 Aug 1.5 10:13:47 10° NW 10:16:36 46° NNE 10:19:23 10° ESE visible
15 Aug 3.1 08:59:30 12° NNW 09:01:24 19° NNE 09:03:35 10° ENE visible
16 Aug 1.4 09:20:00 16° NW 09:22:01 46° NNE 09:24:49 10° ESE visible
17 Aug 0.5 09:40:53 22° WNW 09:42:27 47° SW 09:45:14 10° SE visible
18 Aug 2.2 10:02:12 13° SW 10:02:42 14° SW 10:04:17 10° S visible
